Weather History for Niagara Falls, NY

Change the Weather History Date:

Monday, January 28, 2013

  Actual Average Record
Temperature  
Mean Temperature 32 °F -  
Max Temperature 41 °F 28 °F 50 °F (1990)
Min Temperature 24 °F 14 °F -11 °F (2005)
Degree Days  
Heating Degree Days 32    
Moisture  
Dew Point 31 °F    
Average Humidity 90    
Maximum Humidity 100    
Minimum Humidity 69    
Precipitation  
Precipitation 0.26 in - - ()
Snow  
Snow 0.00 in - - ()
Snow Depth 3.00 in    
Sea Level Pressure  
Sea Level Pressure 30.01 in    
Wind  
Wind Speed 7 mph (South)    
Max Wind Speed 20 mph    
Max Gust Speed 30 mph    
Visibility 3 miles    
Events Rain , Snow    
Averages and records for this station are not official NWS values.
T = Trace of Precipitation, MM = Missing Value Source: NWS Daily Summary

Daily Weather History Graph

Daily Weather History Graph

Search for Another Location

Airport:

Trip Planner

Search our weather history database for the weather conditions in past years. The results will help you decide how hot, cold, wet, or windy it might be!

Date:

Astronomy

Jan. 28, 2013 Rise Set
Actual Time 7:34 AM EST 5:23 PM EST
Civil Twilight 7:04 AM EST 5:53 PM EST
Nautical Twilight 6:30 AM EST 6:27 PM EST
Astronomical Twilight 5:56 AM EST 7:01 PM EST
Moon 7:20 PM EST (1/28) 7:55 AM EST (1/28)
Length of Visible Light 10h 49m
Length of Day
9h 48m
Full, 98% of the Moon is Illuminated
Jan 28
Full
Feb 3
Last Quarter
Feb 10
New
Feb 17
First Quarter
Feb 25
Full

Hourly Weather History & Observations

Time (EST) Temp. Windchill Dew Point Humidity Pressure Visibility Wind Dir Wind Speed Gust Speed Precip Events Conditions
12:53 AM 24.1 °F 18.2 °F 15.1 °F 69% 30.34 in 10.0 mi SE 4.6 mph - 0.00 in   Overcast
1:53 AM 25.0 °F - 16.0 °F 69% 30.32 in 9.0 mi Calm Calm - N/A   Overcast
2:53 AM 26.1 °F 20.5 °F 17.1 °F 69% 30.29 in 9.0 mi SE 4.6 mph - N/A   Overcast
3:46 AM 26.6 °F 22.6 °F 17.6 °F 69% 30.22 in 1.8 mi SSE 3.5 mph - 0.00 in Snow Light Snow
3:50 AM 26.6 °F 21.2 °F 19.4 °F 74% 30.21 in 1.2 mi SE 4.6 mph - 0.00 in Snow Light Snow
3:53 AM 26.1 °F 21.9 °F 19.9 °F 78% 30.26 in 1.0 mi SE 3.5 mph - 0.00 in Snow Light Snow
4:16 AM 26.6 °F 21.2 °F 21.2 °F 80% 30.20 in 1.5 mi ESE 4.6 mph - 0.02 in Snow Light Snow
4:38 AM 26.6 °F 19.1 °F 21.2 °F 80% 30.18 in 1.2 mi SE 6.9 mph - 0.03 in Snow Light Snow
4:53 AM 26.1 °F 17.6 °F 23.0 °F 88% 30.21 in 1.2 mi SE 8.1 mph - 0.04 in Snow Light Snow
5:22 AM 26.6 °F 20.0 °F 24.8 °F 93% 30.13 in 1.0 mi ESE 5.8 mph - 0.02 in Snow Light Snow
5:29 AM 26.6 °F 21.2 °F 24.8 °F 93% 30.13 in 0.8 mi ESE 4.6 mph - 0.03 in Snow Light Snow
5:41 AM 26.6 °F 19.1 °F 24.8 °F 93% 30.12 in 1.0 mi ESE 6.9 mph - 0.04 in Snow Light Snow
5:53 AM 27.0 °F 19.5 °F 24.1 °F 89% 30.16 in 1.0 mi ESE 6.9 mph - 0.05 in Snow Light Snow
6:05 AM 26.6 °F 18.2 °F 24.8 °F 93% 30.10 in 1.0 mi ESE 8.1 mph - 0.02 in Snow Light Snow
6:08 AM 28.4 °F 20.4 °F 24.8 °F 86% 30.10 in 1.2 mi SE 8.1 mph - 0.02 in Snow Light Snow
6:23 AM 28.4 °F 20.4 °F 24.8 °F 86% 30.08 in 1.0 mi SE 8.1 mph - 0.04 in Snow Light Snow
6:30 AM 28.4 °F 19.1 °F 26.6 °F 93% 30.07 in 1.5 mi ESE 10.4 mph - 0.04 in Snow Light Snow
6:39 AM 28.4 °F 19.1 °F 26.6 °F 93% 30.06 in 2.5 mi ESE 10.4 mph - 0.05 in   Overcast
6:45 AM 28.4 °F 19.1 °F 26.6 °F 93% 30.05 in 3.0 mi ESE 10.4 mph - N/A Rain Light Freezing Rain
6:53 AM 30.0 °F 21.1 °F 27.0 °F 88% 30.10 in 4.0 mi ESE 10.4 mph - 0.07 in Rain Light Freezing Rain
7:02 AM 30.2 °F 23.4 °F 28.4 °F 93% 30.06 in 4.0 mi SE 6.9 mph - 0.01 in Rain Light Freezing Rain
7:05 AM 30.2 °F 23.4 °F 28.4 °F 93% 30.07 in 4.0 mi SE 6.9 mph - 0.01 in Rain Light Freezing Rain
7:40 AM 30.2 °F 22.6 °F 28.4 °F 93% 30.04 in 4.0 mi SE 8.1 mph - 0.06 in Rain Light Freezing Rain
7:53 AM 32.0 °F 27.5 °F 28.9 °F 88% 30.09 in 5.0 mi SE 4.6 mph - 0.06 in Rain Light Freezing Rain
8:10 AM 32.0 °F 26.4 °F 30.2 °F 93% 30.02 in 2.5 mi SE 5.8 mph - 0.01 in Rain Light Freezing Rain
8:19 AM 32.0 °F 25.6 °F 30.2 °F 93% 30.02 in 3.0 mi SE 6.9 mph - 0.01 in   Light Freezing Drizzle
8:34 AM 32.0 °F 27.5 °F 30.2 °F 93% 30.02 in 4.0 mi SSE 4.6 mph - 0.01 in   Light Freezing Drizzle
8:46 AM 32.0 °F 26.4 °F 30.2 °F 93% 30.00 in 2.0 mi SSE 5.8 mph - 0.01 in   Light Freezing Drizzle
8:53 AM 32.0 °F 26.4 °F 30.0 °F 92% 30.05 in 2.0 mi SSE 5.8 mph - 0.01 in   Light Freezing Drizzle
8:57 AM 33.8 °F 28.6 °F 30.2 °F 87% 29.99 in 1.8 mi SSE 5.8 mph - 0.00 in   Light Drizzle
9:08 AM 33.8 °F 27.7 °F 30.2 °F 87% 29.99 in 1.8 mi SSE 6.9 mph - 0.00 in   Light Drizzle
9:20 AM 33.8 °F 29.6 °F 30.2 °F 87% 29.98 in 1.5 mi South 4.6 mph - 0.00 in   Light Drizzle
9:49 AM 33.8 °F 27.0 °F 32.0 °F 93% 29.96 in 1.0 mi South 8.1 mph - 0.00 in   Light Drizzle
9:53 AM 34.0 °F 27.2 °F 32.0 °F 92% 30.01 in 1.0 mi South 8.1 mph - 0.00 in   Light Drizzle
9:58 AM 33.8 °F 27.7 °F 32.0 °F 93% 29.96 in 1.5 mi South 6.9 mph - 0.00 in   Light Drizzle
10:31 AM 33.8 °F 30.8 °F 33.8 °F 100% 29.96 in 1.2 mi SSW 3.5 mph - 0.01 in Rain Light Rain
10:47 AM 33.8 °F 30.8 °F 32.0 °F 93% 29.95 in 1.2 mi SSW 3.5 mph - 0.01 in Rain Light Rain
10:53 AM 34.0 °F 29.8 °F 33.1 °F 96% 30.00 in 1.2 mi SSW 4.6 mph - 0.01 in Rain Light Rain
11:10 AM 33.8 °F 29.6 °F 33.8 °F 100% 29.95 in 1.5 mi SW 4.6 mph - 0.00 in   Light Drizzle
11:36 AM 35.6 °F 29.9 °F 33.8 °F 93% 29.94 in 1.8 mi SSW 6.9 mph - 0.00 in   Light Drizzle
11:53 AM 35.1 °F 28.6 °F 33.1 °F 92% 29.96 in 1.8 mi SSW 8.1 mph - 0.00 in   Light Drizzle
12:04 PM 35.6 °F 27.5 °F 33.8 °F 93% 29.92 in 2.0 mi SW 11.5 mph - 0.00 in   Light Drizzle
12:26 PM 37.4 °F 29.8 °F 35.6 °F 93% 29.91 in 1.5 mi SW 11.5 mph - 0.00 in   Light Drizzle
12:53 PM 37.0 °F 28.9 °F 35.1 °F 93% 29.92 in 1.5 mi SSW 12.7 mph - 0.01 in   Light Drizzle
1:01 PM 37.4 °F 29.3 °F 35.6 °F 93% 29.87 in 1.8 mi SSW 12.7 mph - 0.00 in Rain Light Rain
1:53 PM 37.9 °F 29.2 °F 36.0 °F 93% 29.89 in 1.8 mi SW 15.0 mph - 0.00 in   Light Drizzle
2:12 PM 37.4 °F 28.5 °F 35.6 °F 93% 29.83 in 1.5 mi SSW 15.0 mph - 0.00 in   Light Drizzle
2:37 PM 39.2 °F 30.5 °F 37.4 °F 93% 29.83 in 1.8 mi SW 16.1 mph - 0.00 in Rain Light Rain
2:53 PM 39.0 °F 31.0 °F 37.0 °F 93% 29.87 in 1.8 mi SW 13.8 mph - 0.00 in Rain Light Rain
3:09 PM 39.2 °F 31.2 °F 37.4 °F 93% 29.83 in 2.0 mi SW 13.8 mph - 0.00 in   Light Drizzle
3:32 PM 39.2 °F 31.2 °F 37.4 °F 93% 29.83 in 1.5 mi WSW 13.8 mph - 0.01 in   Light Drizzle
3:53 PM 39.9 °F 30.5 °F 37.9 °F 93% 29.88 in 1.5 mi WSW 19.6 mph 25.3 mph 0.01 in Rain Light Rain
4:08 PM 39.2 °F 30.5 °F 37.4 °F 93% 29.84 in 2.0 mi WSW 16.1 mph 28.8 mph 0.00 in Rain Light Rain
4:34 PM 39.2 °F 30.2 °F 37.4 °F 93% 29.84 in 1.5 mi WSW 17.3 mph - 0.00 in   Light Drizzle
4:43 PM 39.2 °F 30.2 °F 39.2 °F 100% 29.84 in 1.5 mi WSW 17.3 mph 24.2 mph 0.00 in   Light Drizzle
4:53 PM 39.9 °F 30.8 °F 37.9 °F 93% 29.89 in 1.5 mi WSW 18.4 mph 29.9 mph 0.00 in   Light Drizzle
5:35 PM 39.2 °F 30.2 °F 39.2 °F 100% 29.86 in 1.2 mi WSW 17.3 mph - 0.00 in   Light Drizzle
5:53 PM 39.9 °F 31.4 °F 37.9 °F 93% 29.91 in 1.2 mi WSW 16.1 mph - 0.00 in   Light Drizzle
6:53 PM 39.9 °F 31.8 °F 39.0 °F 97% 29.92 in 1.2 mi WSW 15.0 mph - 0.00 in   Light Drizzle
7:53 PM 39.9 °F 32.5 °F 37.9 °F 93% 29.94 in 1.2 mi WSW 12.7 mph - 0.00 in   Overcast
8:23 PM 39.2 °F 32.0 °F 39.2 °F 100% 29.91 in 3.0 mi WSW 11.5 mph - N/A   Overcast
8:43 PM 39.2 °F 33.0 °F 39.2 °F 100% 29.91 in 3.0 mi WSW 9.2 mph - N/A   Overcast
8:53 PM 39.9 °F 33.9 °F 39.0 °F 97% 29.95 in 3.0 mi West 9.2 mph - N/A   Overcast
9:41 PM 41.0 °F 33.5 °F 37.4 °F 87% 29.93 in 7.0 mi West 13.8 mph - N/A   Overcast
9:53 PM 41.0 °F 34.3 °F 37.9 °F 89% 29.97 in 7.0 mi West 11.5 mph - N/A   Overcast
10:04 PM 39.2 °F 31.2 °F 37.4 °F 93% 29.93 in 7.0 mi West 13.8 mph - N/A   Overcast
10:53 PM 39.9 °F 33.4 °F 37.0 °F 89% 30.00 in 7.0 mi West 10.4 mph - N/A   Overcast
11:53 PM 39.0 °F 31.8 °F 36.0 °F 89% 30.02 in 6.0 mi West 11.5 mph - N/A   Overcast